Regional Weather Roundup
Issued by NWS Northern Indiana

Home | Current Version | Previous Version | Text Only | Print | Product List | Glossary On
Versions: 1 2 3 4 5 6 7 8 9 10 11 12 13 14 15 16 17 18 19 20 21 22 23 24 25 26 27 28 29 30 31 32 33 34 35 36 37 38 39 40 41 42 43 44 45 46 47 48 49 50
000
ASUS43 KIWX 250610
RWRIWX

KIWX WEATHER ROUNDUP
NATIONAL WEATHER SERVICE NORTHERN INDIANA
200 AM EDT FRI APR 25 2014

NOTE: "FAIR" INDICATES FEW OR NO CLOUDS BELOW 12,000 FEET WITH NO
SIGNIFICANT WEATHER AND/OR OBSTRUCTIONS TO VISIBILITY.

* THESE STATIONS ARE NOT UNDER NWS QUALITY CONTROL. THEY ALSO MAY NOT
  REPORT WEATHER SUCH AS PRECIPITATION OR FOG.

INZ001>027-250700-
NORTHERN INDIANA

CITY           SKY/WX    TMP DP  RH WIND       PRES   REMARKS
GARY*          RAIN      57  32  38 SE12G17   29.64S
VALPARAISO     CLOUDY    52  32  46 E9        29.66F
6HR MIN TEMP:  52; 6HR MAX TEMP:  58; 6HR PCP: TRACE;

MICHIGAN CITY* CLOUDY    52  30  43 E10G21    29.65F
LAPORTE*       CLOUDY    50  33  52 E9        29.67F
6HR MIN TEMP:  49; 6HR MAX TEMP:  57;

SOUTH BEND     CLOUDY    48  36  63 E16       29.70F
6HR MIN TEMP:  48; 6HR MAX TEMP:  58; 6HR PCP:  0.05;

GOSHEN         LGT RAIN  48  35  60 NE6       29.73F
6HR MIN TEMP:  47; 6HR MAX TEMP:  57; 6HR PCP:  0.01;

MONTICELLO*    CLOUDY    56  34  43 SE8       29.65S
6HR MIN TEMP:  56; 6HR MAX TEMP:  60;

LOGANSPORT*    CLOUDY    50  36  57 E10       29.66F
ROCHESTER*     CLOUDY    52  34  50 E13       29.67F
WARSAW*        LGT RAIN  46  32  57 E3        29.72S
ANGOLA*        CLEAR     45  28  53 SE13      29.75F
FORT WAYNE     CLOUDY    47  32  56 E9        29.73F
6HR MIN TEMP:  47; 6HR MAX TEMP:  56;

HUNTINGTON*    CLOUDY    49  30  48 E6        29.70F
6HR MIN TEMP:  49; 6HR MAX TEMP:  58;

PERU/GRISSOM   LGT RAIN  54  32  43 E10       29.66F
6HR MIN TEMP:  55; 6HR MAX TEMP:  59; 6HR PCP: TRACE;

MARION*        MOCLDY    54  25  32 SE12      29.68F
6HR MIN TEMP:  32; 6HR MAX TEMP:  77;


$$
INZ028>050-250700-
CENTRAL INDIANA

CITY           SKY/WX    TMP DP  RH WIND       PRES   REMARKS
LAFAYETTE      CLOUDY    58  39  49 SE7       29.64F
6HR MIN TEMP:  55; 6HR MAX TEMP:  63; 6HR PCP:  0.01;

KOKOMO*          N/A    N/A N/A N/A MISG        N/A
MUNCIE*        FAIR      56  25  30 SE14      29.69F
6HR MIN TEMP:  55; 6HR MAX TEMP:  60;

INDIANAPOLIS   CLOUDY    58  37  45 S9        29.67S
6HR MIN TEMP:  58; 6HR MAX TEMP:  63;


$$
MIZ043>046-050>051-056>058-064>065-071>073-077>080-250700-
SOUTHWEST LOWER MICHIGAN

CITY           SKY/WX    TMP DP  RH WIND       PRES   REMARKS
BATTLE CREEK   MOCLDY    46  25  43 E5        29.77F
6HR MIN TEMP:  46; 6HR MAX TEMP:  51;

BENTON HARBOR  LGT RAIN  45  37  73 E20       29.67F
6HR MIN TEMP:  45; 6HR MAX TEMP:  56; 6HR PCP:  0.07;

COLDWATER*     FAIR      46  25  43 E5        29.75F
6HR MIN TEMP:  44; 6HR MAX TEMP:  50;

HILLSDALE*     FAIR      46  28  48 E14       29.76F
6HR MIN TEMP:  44; 6HR MAX TEMP:  48;

HOLLAND        LGT RAIN  47  34  60 E13       29.74F
6HR MIN TEMP:  46; 6HR MAX TEMP:  56; 6HR PCP:  0.02;

GRAND RAPIDS   CLOUDY    48  23  37 SE10      29.78F
6HR MIN TEMP:  47; 6HR MAX TEMP:  53;

KALAMAZOO      CLOUDY    47  27  45 E7        29.77F
6HR MIN TEMP:  47; 6HR MAX TEMP:  54;

STURGIS*       FAIR      46  28  49 E5        29.75F
THREE RIVERS*  CLOUDY    48  27  44 SE6       29.76F
6HR MIN TEMP:  48; 6HR MAX TEMP:  55;


$$
OHZ001>008-015>018-024>025-250700-
NORTHWEST OHIO

CITY           SKY/WX    TMP DP  RH WIND       PRES   REMARKS
WAUSEON*       FAIR      45  30  57 NE9       29.78F
DEFIANCE       FAIR      46  29  51 NE6       29.77F
6HR MIN TEMP:  45; 6HR MAX TEMP:  51;

FINDLAY        FAIR      50  29  44 SE9       29.76F
6HR MIN TEMP:  46; 6HR MAX TEMP:  51;

TOLEDO EXPRESS FAIR      45  28  51 E7        29.79F
6HR MIN TEMP:  44; 6HR MAX TEMP:  46;

TOLEDO METCALF FAIR      45  31  58 NE6       29.80F
6HR MIN TEMP:  44; 6HR MAX TEMP:  46;

LIMA           FAIR      53  27  36 SE13      29.75F
6HR MIN TEMP:  50; 6HR MAX TEMP:  56;


$$
&&



USA.gov is the U.S. government's official web portal to all federal, state and local government web resources and services.